Weather in Chernyshevo

Russia / Kostroma Oblast     57°32′27″N   43°08′18″E
temp.,
°C
wind,
m/s
gust,
m/s
humid.,
%
clouds,
%
prec.,
mm/h
press.,
hPa
HPBL,
m
17 august, wed
wed1700:00+16ese23745 0.0 102559
03:00+15e22805 0.0 102536
06:00+16e248087 0.0 1025112
09:00+23ese3556100 0.0 1024574
12:00+26se344464 0.0 10241814
15:00+28se243846 0.0 10222291
18:00+25ese2654100 0.0 1021272
21:00+21e266115 0.0 1022123
18 august, thu
thu1800:00+17ese387733 0.0 1022150
03:00+18e277496 0.0 1023186
06:00+18e27746 0.0 1023196
09:00+23e35515 0.0 1024634
12:00+26e45380 0.0 10241614
15:00+27ese45344 0.0 10231956
18:00+25e37461 0.0 1024418
21:00+19e37711 0.0 1025121
19 august, fri
fri1900:00+18e311775 0.0 1026295
03:00+15e310774 0.0 1028261
06:00+14e310720 0.0 1029260
09:00+20ese48390 0.0 1030738
12:00+24ese57310 0.0 10301436
15:00+25ese57290 0.0 10301631
18:00+22ese37410 0.0 1030519
21:00+15e37630 0.0 1031126
20 august, sat
sat2000:00+13ese310650 0.0 1031182
03:00+12ese28690 0.0 1032152
06:00+12ese28670 0.0 1032174
09:00+20se35400 0.0 1033486
12:00+25se34280 0.0 10321448
15:00+26se34261 0.0 10301729
18:00+22se244598 0.0 103086
21:00+16ese236085 0.0 103054
21 august, sun
sun2100:00+14ese236399 0.0 103053
03:00+12ese226691 0.0 103025
06:00+13ese2467100 0.0 103083
09:00+21se244351 0.0 1030464
12:00+25sse343130 0.0 10291429
15:00+26s24286 0.0 10271759
18:00+23s11486 0.0 102715
21:00+17ese226728 0.0 102724